Weather History for GMMN - February, 2013

Change the Weather History Date:

Tuesday, February 19, 2013

  Actual Average Record
Temperature  
Mean Temperature 52 °F -  
Max Temperature 60 °F 67 °F 80 °F (2001)
Min Temperature 44 °F 45 °F 33 °F (2005)
Degree Days  
Heating Degree Days 13    
Growing Degree Days 2 (Base 50)    
Moisture  
Dew Point 49 °F    
Average Humidity 82    
Maximum Humidity 94    
Minimum Humidity 66    
Precipitation  
Precipitation 0.02 in - - ()
Sea Level Pressure  
Sea Level Pressure 29.84 in    
Wind  
Wind Speed 10 mph ()    
Max Wind Speed 21 mph    
Max Gust Speed -    
Visibility 6.0 miles    
Events Rain    
Averages and records for this station are not official NWS values.
T = Trace of Precipitation, MM = Missing Value Source: Averaged Metar Reports

Daily Weather History Graph

Daily Weather History Graph

Search for Another Location

Airport or City:

Trip Planner

Search our weather history database for the weather conditions in past years. The results will help you decide how hot, cold, wet, or windy it might be!

Date:

Astronomy

Feb. 19, 2013 Rise Set
Actual Time 7:10 AM WET 6:18 PM WET
Civil Twilight 6:44 AM WET 6:43 PM WET
Nautical Twilight 6:15 AM WET 7:12 PM WET
Astronomical Twilight 5:47 AM WET 7:41 PM WET
Moon 12:48 PM WET (2/19) 2:21 AM WET (2/19)
Length of Visible Light 11h 59m
Length of Day
11h 08m
Waxing Gibbous, 65% of the Moon is Illuminated
Feb 19
Waxing Gibbous
Feb 25
Full
Mar 4
Last Quarter
Mar 11
New
Mar 19
First Quarter

Hourly Weather History & Observations

Time (WET) Temp. Windchill Dew Point Humidity Pressure Visibility Wind Dir Wind Speed Gust Speed Precip Events Conditions
12:00 AM 54 °F - 49 °F 77% 29.81 in 6 mi South 10.4 mph - -   Clear
12:00 AM 53.6 °F - 48.2 °F 82% 29.80 in 6.2 mi South 10.4 mph - N/A   Mostly Cloudy
12:30 AM 55.4 °F - 48.2 °F 77% 29.80 in 6.2 mi South 13.8 mph - N/A   Mostly Cloudy
1:00 AM 55.4 °F - 48.2 °F 77% 29.80 in 6.2 mi SSW 13.8 mph - N/A   Mostly Cloudy
1:30 AM 53.6 °F - 48.2 °F 82% 29.80 in 6.2 mi SW 11.5 mph - N/A   Mostly Cloudy
2:00 AM 53.6 °F - 48.2 °F 82% 29.80 in 6.2 mi SSW 9.2 mph - N/A   Mostly Cloudy
2:30 AM 53.6 °F - 48.2 °F 82% 29.77 in 6.2 mi SSW 5.8 mph - N/A   Mostly Cloudy
3:00 AM 53 °F - 47 °F 75% 29.79 in 6 mi SSW 5.8 mph - -   Clear
3:00 AM 53.6 °F - 48.2 °F 82% 29.77 in 6.2 mi SSW 5.8 mph - N/A   Mostly Cloudy
3:30 AM 53.6 °F - 48.2 °F 82% 29.77 in 6.2 mi South 6.9 mph - N/A   Unknown
4:00 AM 53.6 °F - 48.2 °F 82% 29.77 in 6.2 mi SSW 9.2 mph - N/A   Scattered Clouds
4:30 AM 53.6 °F - 48.2 °F 82% 29.77 in 6.2 mi SSW 11.5 mph - N/A   Scattered Clouds
5:00 AM 53.6 °F - 50.0 °F 88% 29.77 in 6.2 mi SSW 15.0 mph - N/A   Scattered Clouds
5:30 AM 53.6 °F - 50.0 °F 88% 29.77 in 6.2 mi SSW 13.8 mph - N/A   Scattered Clouds
6:00 AM 53 °F - 50 °F 84% 29.78 in 6 mi SSW 12.7 mph - -   Partly Cloudy
6:00 AM 53.6 °F - 50.0 °F 88% 29.77 in 6.2 mi SSW 12.7 mph - N/A   Scattered Clouds
6:30 AM 53.6 °F - 50.0 °F 88% 29.77 in 6.2 mi SSW 11.5 mph - N/A   Scattered Clouds
7:00 AM 51.8 °F - 48.2 °F 88% 29.77 in 6.2 mi South 12.7 mph - N/A   Scattered Clouds
7:30 AM 51.8 °F - 48.2 °F 88% 29.80 in 6.2 mi South 11.5 mph - N/A   Scattered Clouds
8:00 AM 51.8 °F - 50.0 °F 94% 29.80 in 6.2 mi SSW 11.5 mph - N/A   Mostly Cloudy
8:30 AM 53.6 °F - 50.0 °F 88% 29.83 in 6.2 mi SSW 10.4 mph - N/A   Mostly Cloudy
9:00 AM 55 °F - 51 °F 83% 29.84 in 6 mi SSW 12.7 mph - -   Partly Cloudy
9:00 AM 55.4 °F - 51.8 °F 88% 29.83 in 6.2 mi SSW 12.7 mph - N/A   Mostly Cloudy
10:00 AM 57.2 °F - 51.8 °F 82% 29.83 in 6.2 mi SSW 13.8 mph - N/A   Mostly Cloudy
10:30 AM 57.2 °F - 51.8 °F 82% 29.83 in 6.2 mi SW 11.5 mph - N/A   Mostly Cloudy
11:00 AM 59.0 °F - 51.8 °F 77% 29.83 in 6.2 mi SW 12.7 mph - N/A   Mostly Cloudy
11:30 AM 59.0 °F - 51.8 °F 77% 29.83 in 6.2 mi WSW 12.7 mph - N/A   Mostly Cloudy
12:00 PM 58 °F - 51 °F 70% 29.85 in 6 mi NW 12.7 mph - -   Mostly Cloudy
12:00 PM 57.2 °F - 51.8 °F 82% 29.83 in 6.2 mi NW 12.7 mph - N/A   Mostly Cloudy
12:30 PM 59.0 °F - 50.0 °F 72% 29.83 in 6.2 mi NW 11.5 mph - N/A   Scattered Clouds
1:00 PM 59.0 °F - 50.0 °F 72% 29.83 in 6.2 mi NW 10.4 mph - N/A   Scattered Clouds
1:30 PM 59.0 °F - 51.8 °F 77% 29.83 in 6.2 mi NW 13.8 mph - N/A   Scattered Clouds
2:00 PM 57.2 °F - 50.0 °F 77% 29.83 in 6.2 mi NW 17.3 mph - N/A   Scattered Clouds
2:30 PM 57.2 °F - 50.0 °F 77% 29.83 in 6.2 mi NW 20.7 mph - N/A   Scattered Clouds
3:00 PM 57 °F - 50 °F 70% 29.84 in 6 mi NNW 17.3 mph - -   Mostly Cloudy
3:00 PM 57.2 °F - 50.0 °F 77% 29.83 in 6.2 mi NNW 17.3 mph - N/A   Mostly Cloudy
3:30 PM 57.2 °F - 50.0 °F 77% 29.83 in 6.2 mi NNW 16.1 mph - N/A   Mostly Cloudy
4:00 PM 57.2 °F - 50.0 °F 77% 29.83 in 6.2 mi NNW 12.7 mph - N/A   Mostly Cloudy
4:30 PM 57.2 °F - 53.6 °F 88% 29.83 in 3.7 mi NNW 11.5 mph - N/A Rain Light Rain
5:00 PM 55.4 °F - 51.8 °F 88% 29.86 in 5.0 mi NNW 9.2 mph - N/A   Mostly Cloudy
5:30 PM 57.2 °F - 50.0 °F 77% 29.86 in 6.2 mi NW 13.8 mph - N/A   Mostly Cloudy
6:00 PM 56 °F - 48 °F 66% 29.89 in 5 mi NW 12.7 mph - -   Partly Cloudy
6:00 PM 55.4 °F - 48.2 °F 77% 29.89 in 5.0 mi NW 12.7 mph - N/A   Scattered Clouds
6:30 PM 53.6 °F - 46.4 °F 77% 29.89 in 6.2 mi WNW 9.2 mph - N/A   Scattered Clouds
7:00 PM 51.8 °F - 44.6 °F 76% 29.92 in 5.0 mi WNW 6.9 mph - N/A   Scattered Clouds
7:30 PM 51.8 °F - 48.2 °F 88% 29.92 in 6.2 mi WNW 8.1 mph - N/A Rain Rain
8:00 PM 51.8 °F - 48.2 °F 88% 29.92 in 5.0 mi NW 2.3 mph - N/A   Mostly Cloudy
8:30 PM 50.0 °F - 46.4 °F 87% 29.95 in 6.2 mi SW 4.6 mph - N/A   Mostly Cloudy
9:00 PM 48 °F - 44 °F 82% 29.97 in 6 mi SW 5.8 mph - -   Clear
9:00 PM 48.2 °F - 44.6 °F 87% 29.95 in 6.2 mi SW 5.8 mph - N/A   Mostly Cloudy
9:30 PM 46.4 °F 42.4 °F 42.8 °F 87% 29.98 in 6.2 mi SW 8.1 mph - N/A   Mostly Cloudy
10:00 PM 44.6 °F 40.2 °F 42.8 °F 93% 29.98 in 6.2 mi SSW 8.1 mph - N/A   Mostly Cloudy
10:30 PM 44.6 °F 40.2 °F 42.8 °F 93% 29.98 in 6.2 mi SSW 8.1 mph - N/A   Scattered Clouds
11:00 PM 46.4 °F 42.4 °F 42.8 °F 87% 29.98 in 6.2 mi SSW 8.1 mph - N/A   Scattered Clouds
11:30 PM 44.6 °F 40.2 °F 41.0 °F 87% 29.98 in 6.2 mi SSW 8.1 mph - N/A   Scattered Clouds